Weather History for Aberdeen, United Kingdom

Change the Weather History Date:

Sunday, April 28, 2013

  Actual Average Record
Temperature  
Mean Temperature 47 °F -  
Max Temperature 55 °F 55 °F 59 °F (1997)
Min Temperature 37 °F 41 °F 30 °F (2002)
Degree Days  
Heating Degree Days 18    
Moisture  
Dew Point 34 °F    
Average Humidity 63    
Maximum Humidity 87    
Minimum Humidity 25    
Precipitation  
Precipitation 0.01 in 0.08 in - ()
Sea Level Pressure  
Sea Level Pressure 29.57 in    
Wind  
Wind Speed 12 mph ()    
Max Wind Speed 21 mph    
Max Gust Speed 20 mph    
Visibility 6.9 miles    
Events Rain    
Averages and records for this station are not official NWS values.
T = Trace of Precipitation, MM = Missing Value Source: Averaged Metar Reports

Daily Weather History Graph

Daily Weather History Graph

Search for Another Location

Airport:

Trip Planner

Search our weather history database for the weather conditions in past years. The results will help you decide how hot, cold, wet, or windy it might be!

Date:

Astronomy

Apr. 28, 2013 Rise Set
Actual Time 5:26 AM BST 8:47 PM BST
Civil Twilight 4:41 AM BST 9:33 PM BST
Nautical Twilight 3:38 AM BST 10:36 PM BST
Astronomical Twilight 1:52 AM BST 12:31 AM BST
Moon No Moon Rise 7:04 AM BST (4/28)
Length of Visible Light 16h 51m
Length of Day
15h 20m
Waning Gibbous, 90% of the Moon is Illuminated
Apr 28
Waning Gibbous
May 2
Last Quarter
May 10
New
May 18
First Quarter
May 25
Full

Hourly Weather History & Observations

Time (BST) Temp. Windchill Dew Point Humidity Pressure Visibility Wind Dir Wind Speed Gust Speed Precip Events Conditions
12:20 AM 41.0 °F 34.7 °F 32.0 °F 70% 29.80 in 6.2 mi SSW 10.4 mph - N/A   Partly Cloudy
12:50 AM 41 °F - 32 °F 62% 29.79 in 22 mi SSW 16.1 mph - - Rain Light Rain
12:50 AM 41.0 °F 32.5 °F 32.0 °F 70% 29.77 in 6.2 mi SSW 17.3 mph - N/A   Unknown
1:20 AM 41.0 °F 33.1 °F 33.8 °F 76% 29.77 in - SW 15.0 mph - N/A   Clear
1:50 AM 41.0 °F 33.5 °F 33.8 °F 76% 29.74 in 6.2 mi SSW 13.8 mph - N/A   Unknown
2:20 AM 41.0 °F 32.8 °F 33.8 °F 76% 29.71 in 6.2 mi SSW 16.1 mph - N/A   Unknown
2:50 AM 41.0 °F 33.5 °F 33.8 °F 76% 29.68 in 6.2 mi SW 13.8 mph - N/A   Unknown
3:20 AM 42.8 °F 36.6 °F 33.8 °F 70% 29.68 in 6.2 mi SSW 11.5 mph - N/A   Unknown
3:50 AM 43 °F - 34 °F 60% 29.68 in 28 mi SW 17.3 mph - - Rain Rain
3:50 AM 42.8 °F 35.4 °F 33.8 °F 70% 29.65 in - SW 15.0 mph - N/A   Clear
4:20 AM 42.8 °F 35.8 °F 33.8 °F 70% 29.65 in - SSW 13.8 mph - N/A   Clear
4:50 AM 41.0 °F 34.3 °F 33.8 °F 76% 29.65 in 6.2 mi SSW 11.5 mph - N/A   Unknown
5:20 AM 42.8 °F 36.2 °F 35.6 °F 76% 29.62 in - SSW 12.7 mph - N/A   Clear
5:50 AM 42.8 °F 36.2 °F 35.6 °F 76% 29.62 in 6.2 mi SSW 12.7 mph - N/A   Partly Cloudy
6:20 AM 42.8 °F 37.5 °F 37.4 °F 81% 29.62 in 6.2 mi SSW 9.2 mph - N/A   Scattered Clouds
6:50 AM 43 °F - 37 °F 73% 29.63 in 19 mi SW 13.8 mph - - Rain Light Rain Showers
6:50 AM 42.8 °F 37.5 °F 37.4 °F 81% 29.62 in 6.2 mi SSW 9.2 mph - N/A   Light Drizzle
7:20 AM 42.8 °F 38.6 °F 37.4 °F 81% 29.62 in 6.2 mi SSW 6.9 mph - N/A Rain Light Rain
7:50 AM 42.8 °F 36.6 °F 39.2 °F 87% 29.59 in 6.2 mi SSW 11.5 mph - N/A Rain Light Rain
8:20 AM 46.4 °F 41.5 °F 39.2 °F 76% 29.59 in 6.2 mi SSW 10.4 mph - N/A   Scattered Clouds
8:50 AM 46.4 °F 41.5 °F 39.2 °F 76% 29.59 in 6.2 mi SSW 10.4 mph - N/A   Partly Cloudy
9:20 AM 50.0 °F - 39.2 °F 66% 29.59 in 6.2 mi SSW 10.4 mph - N/A   Scattered Clouds
9:50 AM 50 °F - 37 °F 51% 29.59 in 22 mi WSW 8.1 mph - -   Scattered Clouds
9:50 AM 50.0 °F - 39.2 °F 66% 29.56 in 6.2 mi WSW 6.9 mph - N/A   Scattered Clouds
10:20 AM 51.8 °F - 37.4 °F 58% 29.56 in 6.2 mi WSW 10.4 mph - N/A   Scattered Clouds
10:50 AM 51.8 °F - 37.4 °F 58% 29.56 in 6.2 mi West 8.1 mph - N/A   Scattered Clouds
11:20 AM 51.8 °F - 33.8 °F 50% 29.56 in 6.2 mi West 10.4 mph - N/A   Scattered Clouds
11:50 AM 51.8 °F - 35.6 °F 54% 29.56 in 6.2 mi West 12.7 mph - N/A   Scattered Clouds
12:20 PM 53.6 °F - 39.2 °F 58% 29.53 in 6.2 mi WNW 20.7 mph - N/A   Scattered Clouds
12:50 PM 51 °F - 34 °F 40% 29.56 in 22 mi WNW 16.1 mph - - Rain Rain
12:50 PM 51.8 °F - 35.6 °F 54% 29.56 in 6.2 mi WNW 19.6 mph - N/A   Scattered Clouds
1:20 PM 53.6 °F - 35.6 °F 51% 29.53 in - West 15.0 mph - N/A   Clear
1:50 PM 55.4 °F - 35.6 °F 47% 29.53 in 6.2 mi West 20.7 mph - N/A   Partly Cloudy
2:20 PM 51.8 °F - 37.4 °F 58% 29.53 in 6.2 mi West 9.2 mph - N/A   Partly Cloudy
2:50 PM 50.0 °F - 37.4 °F 62% 29.53 in 6.2 mi WNW 19.6 mph - N/A   Scattered Clouds
3:20 PM 51.8 °F - 35.6 °F 54% 29.53 in 6.2 mi WNW 12.7 mph - N/A   Partly Cloudy
3:50 PM 54 °F - 29 °F 25% 29.51 in 19 mi West 19.6 mph - -  
3:50 PM 53.6 °F - 30.2 °F 41% 29.50 in 6.2 mi West 13.8 mph - N/A   Partly Cloudy
4:20 PM 53.6 °F - 28.4 °F 38% 29.50 in 6.2 mi West 13.8 mph - N/A   Partly Cloudy
4:50 PM 50.0 °F - 37.4 °F 62% 29.50 in 6.2 mi WNW 10.4 mph - N/A   Partly Cloudy
5:20 PM 50.0 °F - 35.6 °F 58% 29.47 in 6.2 mi West 11.5 mph - N/A   Partly Cloudy
5:50 PM 50.0 °F - 33.8 °F 54% 29.47 in 6.2 mi WSW 12.7 mph - N/A   Scattered Clouds
6:20 PM 48.2 °F - 32.0 °F 54% 29.47 in 6.2 mi West 17.3 mph - N/A   Scattered Clouds
6:50 PM 45 °F - 34 °F 55% 29.49 in 25 mi WNW 15.0 mph - - Rain Rain
6:50 PM 44.6 °F 37.8 °F 35.6 °F 71% 29.50 in 6.2 mi WNW 15.0 mph - N/A   Scattered Clouds
7:20 PM 44.6 °F 39.2 °F 33.8 °F 66% 29.47 in 6.2 mi West 10.4 mph - N/A   Partly Cloudy
7:50 PM 46.4 °F 42.4 °F 33.8 °F 62% 29.47 in 6.2 mi West 8.1 mph 19.6 mph N/A   Partly Cloudy
8:20 PM 44.6 °F 38.8 °F 30.2 °F 57% 29.47 in - West 11.5 mph - N/A   Clear
8:50 PM 42.8 °F 36.6 °F 32.0 °F 66% 29.47 in - WSW 11.5 mph - N/A   Clear
9:20 PM 42.8 °F 36.6 °F 30.2 °F 61% 29.50 in - West 11.5 mph - N/A   Clear
9:50 PM 42 °F - 29 °F 49% 29.50 in 22 mi West 11.5 mph - -  
9:50 PM 41.0 °F 34.7 °F 30.2 °F 65% 29.50 in - West 10.4 mph - N/A   Clear
10:20 PM 39.2 °F 35.0 °F 30.2 °F 70% 29.47 in - WSW 5.8 mph - N/A   Clear
10:50 PM 39.2 °F 34.2 °F 30.2 °F 70% 29.47 in - WSW 6.9 mph - N/A   Clear
11:20 PM 39.2 °F 34.2 °F 30.2 °F 70% 29.47 in - WSW 6.9 mph - N/A   Clear
11:50 PM 37.4 °F 32.1 °F 30.2 °F 75% 29.47 in - WSW 6.9 mph - N/A   Clear